EHI
0 0 0 0 0 0 0 0 0 0 0 0 0 0 0 0 0 0 0 0 0 0 0 0 0 0 0 0 0 0 0 0 0 0 0 0 0 0 0 0 0 0 0 0
0 0 0 0 0 0 0 0 0 0 0 0 0 0 0 0 0 0 0 0 0 0 0 0 0 0 0 0 0 0 0 0 0 0 0 0 0 0 0 0 0 0 0 0
0 0 0 0 0 0 0 0 0 0 0 0 0 0 0 0 0 0 0 0 0 0 0 0 0 0 0 0 0 0 0 0 0 0 0 0 0 0 0 0 0 0 0 0
0 0 0 0 0 0 0 0 0 0 0 0 0 0 0 0 0 0 0 0 0 0 0 0 0 0 0 0 0 0 0 0 0 0 0 0 0 0 0 0 0 0 0 0
0 0 0 0 0 0 0 0 0 0 0 0 0 0 0 0 0 0 0 0 0 0 0 0 0 0 0 0 0 0 0 0 0 0 0 0 0 0 0 0 0 0 0 0
0 0 0 0 0 0 0 0 0 0 0 0 0 0 0 0 0 0 0 0 0 0 0 0 0 0 0 0 0 0 0 0 0 0 0 0 0 0 0 0 0 0 0 0
0 0 0 0 0 0 0 0 0 0 0 0 0 0 0 0 0 0 0 0 0 0 0 0 0 0 0 0 0 0 0 0 0 0 0 0 0 0 0 0 0 0 0 0
0 0 0 0 0 0 0 0 0 0 0 0 0 0 0 0 0 0 0 0 0 0 0 0 0 0 0 0 0 0 0 0 0 0 0 0 0 0 0 0 0 0 0 0
0 0 0 0 0 0 0 0 0 0 0 0 0 0 0 0 0 0 0 0 0 0 0 0 0 0 0 0 0 0 0 0 0 0 0 0 0 0 0 0 0 0 0 0
0 0 0 0 0 0 0 0 0 0 0 0 0 0 0 0 0 0 0 0 0 0 0 0 0 0 0 0 0 0 0 0 0 0 0 0 0 0 0 0 0 0 0 0
0 0 0 0 0 0 0 0 0 0 0 0 0 0 0 0 0 0 0 0 0 0 0 0 0 0 0 0 0 0 0 0 0 0 0 0 0 0 0 0 0 0 0 0
0 0 0 0 0 0 0 0 0 0 0 0 0 0 0 0 0 0 0 0 0 0 0 0 0 0 0 0 0 0 0 0 0 0 0 0 0 0 0 0 0 0 0 0
0 0 0 0 0 0 0 0 0 0 0 0 0 0 0 0 0 0 0 0 0 0 0 0 0 0 0 0 0 0 0 0 0 0 0 0 0 0 0 0 0 0 0 0
0 0 0 0 0 0 0 0 0 0 0 0 0 0 0 0 0 0 0 0 0 0 0 0 0 0 0 0 0 0 0 0 0 0 0 0 0 0 0 0 0 0 0 0
0 0 0 0 0 0 0 0 0 0 0 0 0 0 0 0 0 0 0 0 0 0 0 0 0 0 0 0 0 0 0 0 0 0 0 0 0 0 0 0 0 0 0 0
0 0 0 0 0 0 0 0 0 0 0 0 0 0 0 0 0 0 0 0 0 0 0 0 0 0 0 0 0 0 0 0 0 0 0 0 0 0 0 0 0 0 0 0
0 0 0 0 0 0 0 0 0 0 0 0 0 0 0 0 0 0 0 0 0 0 0 0 0 0 0 0 0 0 0 0 0 0 0 0 0 0 0 0 0 0 0 0
0 0 0 0 0 0 0 0 0 0 0 0 0 0 0 0 0 0 0 0 0 0 0 0 0 0 0 0 0 0 0 0 0 0 0 0 0 0 0 0 0 0 0 0
0 0 0 0 0 0 0 0 0 0 0 0 0 0 0 0 0 0 0 0 0 0 0 0 0 0 0 0 0 0 0 0 0 0 0 0 0 0 0 0 0 0 0 0
0 0 0 0 0 0 0 0 0 0 0 0 0 0 0 0 0 0 0 0 0 0 0 0 0 0 0 0 0 0 0 0 0 0 0 0 0 0 0 0 0 0 0 0
0 0 0 0 0 0 0 0 0 0 0 0 0 0 0 0 0 0 0 0 0 0 0 0 0 0 0 0 0 0 0 0 0 0 0 0 0 0 0 0 0 0 0 0
0 0 0 0 0 0 0 0 0 0 0 0 0 0 0 0 0 0 0 0 0 0 0 0 0 0 0 0 0 0 0 0 0 0 0 0 0 0 0 0 0 0 0 0
0 0 0 0 0 0 0 0 0 0 0 0 0 0 0 0 0 0 0 0 0 0 0 0 0 0 0 0 0 0 0 0 0 0 0 0 0 0 0 0 0 0 0 0
0 0 0 0 0 0 0 0 0 0 0 0 0 0 0 0 0 0 0 0 0 0 0 0 0 0 0 0 0 0 0 0 0 0 0 0 0 0 0 0 0 0 0 0
0 0 0 0 0 0 0 0 0 0 0 0 0 0 0 0 0 0 0 0 0 0 0 0 0 0 0 0 0 0 0 0 0 0 0 0 0 0 0 0 0 0 0 0
0 0 0 0 0 0 0 0 0 0 0 0 0 0 0 0 0 0 0 0 0 0 0 0 0 0 0 0 0 0 0 0 0 0 0 0 0 0 0 0 0 0 0 0
0 0 0 0 0 0 0 0 0 0 0 0 0 0 0 0 0 0 0 0 0 0 0 0 0 0 0 0 0 0 0 0 0 0 0 0 0 0 0 0 0 0 0 0
Wind_Speed
11 9 16 18 19 21 21 18 14 13 13 11 8 7 7 7 6 6 6 7 8 8 7 8 9 9 9 9 9 9 9 9 9 8 8 8 8 8 8 8 7 7 6 5
14 12 10 13 18 20 22 20 18 14 14 7 5 4 4 5 5 6 6 7 8 8 8 9 9 9 9 9 9 9 9 9 8 8 8 8 8 8 8 7 7 6 6 6
12 11 8 14 17 18 18 18 18 20 15 7 7 6 6 5 5 5 6 6 7 8 8 8 9 9 9 9 8 9 8 8 8 9 9 8 8 8 8 7 6 6 6 6
6 8 15 12 10 14 16 16 16 14 9 9 9 6 5 5 6 6 6 6 7 7 7 6 7 8 8 8 8 9 8 8 8 8 8 8 8 7 7 5 6 5 5 6
6 8 9 7 12 16 17 17 15 14 11 10 7 3 4 5 5 6 5 5 5 6 6 7 7 8 8 8 8 8 8 8 8 8 8 8 8 7 5 5 5 5 5 5
6 8 11 8 10 9 8 14 13 14 13 10 8 7 6 5 6 5 6 5 6 6 7 7 7 8 9 8 8 8 8 7 7 8 8 8 7 6 5 4 4 4 4 4
8 6 8 5 9 12 10 11 9 12 11 10 11 9 6 7 6 7 7 7 7 7 6 6 7 8 8 7 7 6 7 7 7 7 7 6 5 4 4 4 4 4 4 4
9 8 8 4 10 12 7 3 4 7 9 9 8 8 8 8 8 8 7 7 7 7 6 6 7 8 8 7 6 7 7 7 6 6 5 5 5 4 4 4 4 3 3 3
10 9 4 9 8 7 4 4 3 4 5 8 8 8 8 8 8 7 7 7 6 8 7 6 6 7 8 7 8 8 8 7 6 6 5 5 5 4 4 3 3 3 3 3
6 7 8 7 5 4 3 4 5 5 6 8 8 9 9 9 8 8 7 7 7 8 8 6 6 6 7 7 8 8 8 6 6 5 4 4 3 3 3 3 3 3 3 4
8 5 6 8 7 6 4 5 5 5 5 8 10 9 9 8 8 8 7 6 7 7 8 7 7 7 7 7 8 8 7 6 5 4 4 3 3 3 3 4 5 4 4 4
9 8 6 8 8 8 7 6 7 7 6 5 8 9 8 8 7 8 8 7 7 8 8 8 8 7 6 7 7 8 6 5 4 3 3 2 2 1 2 4 6 8 8 8
5 6 5 6 7 8 8 8 7 7 8 7 7 8 9 8 7 8 8 8 8 8 8 8 8 7 6 6 7 7 6 5 3 3 3 2 2 2 2 3 6 8 10 11
3 4 4 4 6 7 8 7 7 7 6 7 7 8 9 8 8 9 9 8 8 9 9 8 8 7 6 6 6 6 5 5 4 3 2 2 2 2 3 3 3 4 7 11
4 3 5 5 4 5 7 8 8 7 7 7 7 8 9 10 9 8 8 9 9 9 8 8 8 7 6 6 6 5 4 3 3 2 2 2 2 2 3 3 4 4 4 6
4 3 5 6 7 7 7 8 9 8 8 8 8 8 8 9 9 9 8 9 10 9 8 8 7 6 6 6 5 4 3 4 3 2 2 2 2 2 3 3 4 4 5 5
8 7 7 7 8 8 7 7 8 9 9 9 9 10 11 11 10 9 7 7 7 7 7 8 7 6 6 5 5 3 3 3 3 2 2 2 2 3 3 4 4 5 5 7
9 9 9 9 9 9 7 7 8 9 9 9 11 11 12 12 11 10 9 9 9 7 6 6 6 6 5 5 4 3 2 2 2 2 2 2 3 3 3 4 5 6 5 7
7 6 6 7 8 8 8 7 8 9 9 11 12 11 9 9 10 10 10 9 9 7 5 6 9 6 5 4 4 3 2 2 2 2 2 5 4 3 4 4 5 6 6 6
6 6 7 7 7 8 9 9 10 10 9 11 12 11 11 9 9 10 9 6 4 5 6 6 6 4 4 3 3 2 2 2 2 2 2 3 3 4 4 5 5 6 6 6
7 8 9 9 9 9 9 10 11 11 10 10 11 12 11 10 9 9 9 6 4 6 6 7 4 3 3 2 2 1 1 1 2 2 3 3 4 5 5 5 6 7 7 7
8 9 10 11 11 10 8 9 11 12 12 11 11 12 12 11 9 8 6 5 5 7 5 3 3 3 2 1 1 1 1 2 2 2 3 4 4 5 6 6 7 7 7 7
9 10 11 11 12 12 11 10 10 11 12 11 11 11 11 9 6 7 6 4 4 7 5 3 3 3 1 1 0 1 2 2 3 3 4 4 5 5 6 7 7 7 7 7
11 11 12 12 13 14 13 11 11 10 11 11 9 9 9 8 6 5 6 8 7 6 4 3 3 2 2 1 0 1 2 3 3 4 4 5 5 6 6 7 8 8 8 9
12 13 13 13 13 11 12 13 13 12 12 10 10 9 7 6 6 6 5 5 7 6 3 2 2 3 2 1 1 2 3 4 5 5 5 5 6 6 7 8 8 8 9 9
11 10 9 9 9 9 9 9 9 8 9 9 8 7 7 6 7 6 5 5 5 4 2 1 1 2 1 2 2 3 3 5 6 5 6 7 8 8 8 8 10 9 9 9
12 10 10 10 9 8 8 8 9 8 8 8 8 6 6 6 5 5 4 3 3 2 1 1 1 1 2 3 3 4 4 5 5 6 6 7 7 8 8 10 9 9 9 10
Wind_Direction
226 209 183 196 205 209 216 220 223 228 229 229 212 200 196 191 182 173 172 173 179 180 181 177 177 179 178 177 172 167 166 169 171 166 161 159 158 159 158 160 165 166 170 179
232 230 214 208 209 211 217 222 230 239 241 231 234 212 209 203 187 180 185 185 180 179 179 181 181 180 177 175 171 165 167 169 163 160 159 160 160 159 159 162 165 168 178 185
224 221 231 234 217 214 217 221 223 233 236 232 242 230 216 206 196 191 188 183 180 180 182 182 179 175 176 171 162 162 165 163 163 162 162 162 161 160 166 169 169 177 185 190
204 199 225 234 209 217 223 226 222 229 226 220 228 223 206 195 193 192 183 178 176 171 171 170 162 159 155 152 156 159 162 163 162 161 160 158 161 167 169 168 174 181 190 197
191 209 238 234 203 202 212 231 219 222 222 219 212 217 237 204 180 179 173 159 155 154 151 146 148 148 143 149 152 156 162 163 161 159 158 161 168 170 168 169 180 187 190 198
189 203 220 214 188 178 190 241 220 213 215 205 179 207 226 186 166 155 137 127 124 121 120 131 139 138 141 148 151 160 161 156 153 154 158 164 167 167 166 170 181 183 197 205
196 213 243 216 165 143 183 229 202 199 199 188 191 198 166 142 131 125 122 120 117 117 121 132 134 133 140 144 155 149 138 137 141 146 152 155 157 160 161 165 171 187 206 218
195 209 229 177 153 173 198 173 169 179 183 178 172 148 136 132 129 126 124 125 124 121 120 123 129 133 136 141 135 127 129 133 136 140 144 147 151 158 160 162 176 199 215 235
196 211 195 168 180 194 163 156 155 152 152 149 146 149 143 141 139 138 137 133 127 126 122 119 125 131 134 135 129 128 128 131 133 134 139 147 154 160 162 167 181 205 215 235
205 208 193 190 182 183 164 150 142 137 140 143 146 148 145 144 144 142 138 136 132 130 129 125 119 118 125 126 126 126 129 130 133 136 141 144 148 159 168 180 193 210 223 239
218 200 172 197 196 182 161 131 126 125 137 147 144 148 149 149 149 146 139 137 137 138 135 132 124 119 121 125 126 126 128 130 133 137 145 151 160 177 187 200 201 213 222 225
209 195 184 200 197 177 166 170 160 145 137 139 147 149 146 146 146 142 141 139 137 136 134 131 126 124 123 125 128 130 133 135 136 139 142 147 159 209 238 239 249 252 255 257
201 190 187 178 182 176 175 174 163 155 152 148 146 144 142 140 139 138 140 143 144 141 136 132 129 128 128 127 127 130 136 139 138 144 153 164 173 193 254 286 273 269 270 274
191 159 178 186 182 172 165 157 147 138 138 142 140 136 133 131 135 141 147 145 136 131 131 132 132 133 130 125 123 125 128 136 142 154 164 177 194 210 222 245 271 275 273 278
202 178 176 158 140 139 137 134 135 138 137 132 131 135 139 142 144 142 134 129 126 127 132 134 134 134 128 125 127 130 131 138 143 151 167 190 209 225 239 249 259 271 276 280
175 145 141 146 152 146 144 148 153 155 150 142 139 140 138 133 127 124 127 133 137 142 142 137 135 133 128 127 126 126 132 149 152 159 181 208 224 237 249 256 263 269 272 274
168 178 174 169 167 166 170 166 160 155 150 147 144 134 127 124 122 124 123 120 121 123 126 129 130 126 126 129 130 134 139 158 175 184 206 222 232 242 250 256 262 267 268 277
194 192 182 173 169 165 162 153 146 145 145 141 134 132 137 140 140 136 128 118 111 104 107 119 122 122 123 126 128 133 142 162 183 205 225 236 250 247 253 261 267 273 277 285
185 175 167 160 158 155 150 144 140 135 133 134 136 137 134 130 130 129 127 125 127 127 129 126 127 123 126 134 130 132 150 180 216 235 242 267 277 265 265 267 269 272 277 280
168 155 144 134 129 132 132 128 126 125 128 129 126 122 121 123 126 124 119 111 115 129 132 128 124 126 129 134 127 141 174 206 232 250 257 260 267 270 269 270 272 275 276 277
148 136 130 125 119 118 124 128 128 127 125 127 130 130 126 121 119 119 118 112 108 116 122 124 120 124 126 135 129 160 201 225 245 255 262 266 270 272 273 275 278 281 281 281
133 129 125 121 117 111 108 112 119 121 119 116 115 118 119 118 112 100 92 112 125 120 112 110 114 126 130 113 135 197 233 248 257 261 263 266 269 274 277 280 280 282 283 282
120 119 118 118 116 109 99 98 105 112 114 117 120 121 119 117 117 117 111 109 113 109 101 104 117 115 59 49 143 248 260 265 267 268 268 269 271 274 277 279 279 281 281 281
108 107 108 108 108 106 103 99 97 97 98 97 97 103 109 108 90 79 102 112 106 97 95 104 89 44 3 34 297 274 271 271 271 271 272 272 273 274 275 277 279 280 280 281
104 106 109 112 109 108 109 107 102 99 97 94 88 81 79 88 101 102 97 99 97 85 84 74 32 360 2 316 285 276 274 271 276 279 272 276 278 280 280 280 280 281 281 280
99 100 98 97 103 111 114 113 108 106 105 101 92 85 84 84 89 91 90 88 84 71 65 50 7 343 323 296 287 283 281 290 294 289 282 282 281 281 280 280 280 280 281 280
92 93 94 92 88 92 99 102 105 104 103 106 102 92 88 87 87 86 83 81 74 64 44 7 337 314 299 292 287 284 282 281 281 280 280 280 281 281 281 281 281 281 280 279